This is the latest recevied weather packets stored in our database for station/object DB0TGO-13. If no packets are shown the sender has not sent any weather packets the latest 1 day(s).
| Time | Temp. | Humidity | Pressure | Rain* | Wind** | Luminosity | Snow |
|---|---|---|---|---|---|---|---|
| 1777969802 | 15° C | 79% | 1004.3 hPa | - | 1.79 m/s, 90° | - | - |
| 1777968902 | 14.44° C | 79% | 1004.2 hPa | - | 1.79 m/s, 90° | - | - |
| 1777968003 | 14.44° C | 79% | 1004.2 hPa | - | 3.13 m/s, 80° | - | - |
| 1777967102 | 14.44° C | 80% | 1004.2 hPa | - | 3.13 m/s, 80° | - | - |
| 1777966202 | 14.44° C | 80% | 1004.2 hPa | - | 2.68 m/s, 70° | - | - |
| 1777965302 | 13.89° C | 80% | 1004.3 hPa | - | 3.13 m/s, 60° | - | - |
| 1777964402 | 13.89° C | 80% | 1004.3 hPa | - | 3.13 m/s, 60° | - | - |
| 1777963502 | 13.89° C | 82% | 1004.6 hPa | - | 3.13 m/s, 60° | - | - |
| 1777962602 | 13.89° C | 82% | 1004.6 hPa | - | 2.68 m/s, 50° | - | - |
| 1777961702 | 13.89° C | 82% | 1004.5 hPa | - | 2.68 m/s, 50° | - | - |
| 1777960802 | 13.89° C | 82% | 1004.5 hPa | - | 2.68 m/s, 40° | - | - |
| 1777959902 | 13.89° C | 80% | 1004.5 hPa | - | 2.68 m/s, 40° | - | - |
| 1777959002 | 13.89° C | 80% | 1004.5 hPa | - | 1.79 m/s, 30° | - | - |
| 1777958103 | 13.33° C | 83% | 1004.7 hPa | - | 1.79 m/s, 30° | - | - |
| 1777957202 | 13.33° C | 83% | 1004.7 hPa | - | 1.79 m/s, 10° | - | - |
| 1777956303 | 13.33° C | 81% | 1004.6 hPa | - | 1.79 m/s, 10° | - | - |
| 1777955402 | 13.33° C | 81% | 1004.6 hPa | - | 2.24 m/s, 40° | - | - |
| 1777954502 | 13.33° C | 81% | 1004.8 hPa | - | 1.79 m/s, 30° | - | - |
| 1777953603 | 13.33° C | 81% | 1004.8 hPa | - | 1.79 m/s, 30° | - | - |
| 1777952702 | 13.33° C | 81% | 1004.9 hPa | - | 0.89 m/s, 10° | - | - |
| 1777951802 | 13.33° C | 81% | 1004.9 hPa | - | 0.89 m/s, 10° | - | - |
| 1777950902 | 13.89° C | 77% | 1005.3 hPa | - | 0.89 m/s, 10° | - | - |
| 1777950003 | 13.89° C | 77% | 1005.3 hPa | - | 1.34 m/s, 90° | - | - |
* Rain since midnight (hover to see other rain measurements)
** Current wind speed in m/s (hover to see current wind gust speed)